EW9824 Weather Reports


time (UTC)temp
F
wind
direction
speed
knots
gust
knots
rain 1hr
in
rain 24hr
in
rain mn
in
humidity
%
barometer
mb
20260510161530 60 67 0.0 1.7 0.00 0.00 0.00 68 1019.8
20260510160108 58 54 0.0 2.6 0.00 0.00 0.00 71 1019.9
20260510154532 57 17 0.9 2.6 0.00 0.00 0.00 74 1019.6
20260510153103 57 216 0.0 0.9 0.00 0.00 0.00 76 1019.5
20260510151530 55 176 0.0 0.9 0.00 0.00 0.00 79 1019.5
20260510150029 53 220 0.0 0.9 0.00 0.00 0.00 81 1019.6
20260510144530 52 179 0.9 2.6 0.00 0.00 0.00 83 1019.3
20260510143031 50 145 0.9 4.3 0.00 0.00 0.00 83 1019.1
20260510140029 47 176 1.7 3.5 0.00 0.00 0.00 84 1018.9
20260510134528 45 166 2.6 4.3 0.00 0.00 0.00 86 1019.1
20260510133035 44 195 1.7 3.5 0.00 0.00 0.00 87 1019.1
20260510131529 43 133 1.7 3.5 0.00 0.00 0.00 87 1019.0
20260510124530 43 136 0.9 3.5 0.00 0.00 0.00 85 1018.9
20260510123118 43 170 1.7 3.5 0.00 0.00 0.00 85 1019.2
20260510121529 42 156 2.6 6.1 0.00 0.00 0.00 87 1019.3
20260510120105 41 172 1.7 4.3 0.00 0.00 0.00 86 1019.0
20260510114531 42 164 0.9 3.5 0.00 0.00 0.00 84 1019.1
20260510113030 43 169 0.9 3.5 0.00 0.00 0.00 84 1019.0
20260510111531 42 142 1.7 4.3 0.00 0.00 0.00 82 1018.8
20260510110033 44 171 0.9 3.5 0.00 0.00 0.00 80 1018.8
20260510104528 45 177 1.7 5.2 0.00 0.00 0.00 80 1019.1
20260510101528 45 155 1.7 5.2 0.00 0.00 0.00 79 1019.0
20260510094531 46 158 1.7 3.5 0.00 0.00 0.00 78 1019.0
20260510093034 46 161 2.6 5.2 0.00 0.00 0.00 78 1019.0
20260510091529 45 164 2.6 4.3 0.00 0.00 0.00 79 1019.1
20260510090034 45 157 1.7 2.6 0.00 0.00 0.00 78 1019.3
20260510084534 46 171 0.9 3.5 0.00 0.00 0.00 76 1019.4
20260510083145 47 175 1.7 3.5 0.00 0.00 0.00 74 1019.6
20260510081530 48 153 1.7 3.5 0.00 0.00 0.00 71 1019.6
20260510074533 49 169 3.5 5.2 0.00 0.00 0.00 69 1019.9
20260510070030 51 160 1.7 3.5 0.00 0.00 0.00 66 1019.9
20260510064532 50 158 2.6 5.2 0.00 0.00 0.00 66 1019.8
20260510061529 50 161 2.6 5.2 0.00 0.00 0.00 66 1019.7
20260510054528 51 169 2.6 4.3 0.00 0.00 0.00 65 1019.6
20260510053031 52 158 0.9 3.5 0.00 0.00 0.00 64 1019.6
20260510051529 53 160 2.6 4.3 0.00 0.00 0.00 64 1019.5
20260510050032 56 163 1.7 4.3 0.00 0.00 0.00 61 1019.4
20260510044530 56 165 3.5 6.1 0.00 0.00 0.00 63 1019.3
20260510043034 56 182 3.5 5.2 0.00 0.00 0.00 65 1019.3
20260510041607 57 171 1.7 3.5 0.00 0.00 0.00 67 1019.2
20260510040031 59 154 1.7 4.3 0.00 0.00 0.00 66 1019.0
20260510034606 61 161 0.9 3.5 0.00 0.00 0.00 64 1018.9
20260510033031 63 177 2.6 4.3 0.00 0.00 0.00 64 1018.9
20260510031529 65 168 0.9 2.6 0.00 0.00 0.00 62 1018.8
20260510024604 67 143 0.9 2.6 0.00 0.00 0.00 55 1018.9
20260510023030 69 125 1.7 2.6 0.00 0.00 0.00 51 1019.0
20260510021541 70 98 0.0 1.7 0.00 0.00 0.00 48 1018.9
20260510020032 71 45 0.0 1.7 0.00 0.00 0.00 43 1019.0
20260510014531 73 55 0.0 3.5 0.00 0.00 0.00 39 1019.1
20260510011531 74 305 0.0 1.7 0.00 0.00 0.00 35 1019.4
20260510010146 75 287 1.7 5.2 0.00 0.00 0.00 33 1019.4
20260510004530 76 285 2.6 6.1 0.00 0.00 0.00 34 1019.4
20260510003147 75 300 2.6 7.0 0.00 0.00 0.00 35 1019.5
20260510001607 75 325 3.5 7.0 0.00 0.00 0.00 36 1019.5
20260510000031 75 346 4.3 8.7 0.00 0.00 0.00 36 1019.5
20260509233031 75 338 4.3 8.7 0.00 0.00 0.00 37 1019.9
20260509231543 75 322 3.5 8.7 0.00 0.00 0.00 38 1020.2
20260509230031 75 326 4.3 11.3 0.00 0.00 0.00 39 1020.4
20260509224532 75 328 3.5 8.7 0.00 0.00 0.00 39 1020.7
20260509223031 74 319 3.5 9.6 0.00 0.00 0.00 39 1020.9
20260509221531 73 327 4.3 9.6 0.00 0.00 0.00 40 1021.1
20260509220031 73 316 4.3 12.2 0.00 0.00 0.00 40 1021.2
20260509214528 73 311 4.3 9.6 0.00 0.00 0.00 43 1021.4
20260509213030 72 330 5.2 12.2 0.00 0.00 0.00 45 1021.6
20260509211530 71 307 4.3 8.7 0.00 0.00 0.00 47 1021.7
20260509210031 71 344 4.3 9.6 0.00 0.00 0.00 48 1021.9
20260509204604 71 324 4.3 8.7 0.00 0.00 0.00 48 1022.1
20260509203030 70 303 4.3 9.6 0.00 0.00 0.00 50 1022.2
20260509201602 69 347 3.5 8.7 0.00 0.00 0.00 51 1022.3
20260509200030 69 334 4.3 9.6 0.00 0.00 0.00 53 1022.6
20260509194604 68 7 4.3 8.7 0.00 0.00 0.00 54 1022.8
20260509193144 67 351 3.5 7.8 0.00 0.00 0.00 54 1023.0
20260509191529 66 353 3.5 8.7 0.00 0.00 0.00 55 1023.1
20260509190107 66 347 4.3 8.7 0.00 0.00 0.00 54 1023.3
20260509184530 65 330 3.5 7.0 0.00 0.00 0.00 55 1023.4
20260509183031 64 336 3.5 7.0 0.00 0.00 0.00 56 1023.5
20260509181531 63 343 4.3 7.8 0.00 0.00 0.00 57 1023.7
20260509174530 62 331 4.3 8.7 0.00 0.00 0.00 59 1023.6
20260509173103 61 309 4.3 8.7 0.00 0.00 0.00 59 1023.6
20260509171530 60 336 3.5 7.8 0.00 0.00 0.00 59 1023.8
20260509170032 60 348 4.3 8.7 0.00 0.00 0.00 61 1023.9
20260509164532 59 353 4.3 8.7 0.00 0.00 0.00 61 1024.0
20260509163033 58 314 2.6 6.1 0.00 0.00 0.00 59 1024.1